Location: ????????
(55.0559°N, 39.1270°E)
Time: 01:37:32
(UTC+00:00)

SKYMED 2 - Pass Details

Date: 15 November 2025
Orbit: 621 x 623 km, 97.9° (Epoch: 12 December)

Event Time Altitude Azimuth Distance (km) Brightness Sun altitude
Rises 02:10:51 0° 160° (SSE) 2,897 7.3 -23.2°
Reaches altitude 10° 02:13:02 10° 159° (SSE) 1,995 6.4 -22.9°
Maximum altitude 02:17:22 80° 73° (ENE) 641 3.6 -22.3°
Enters shadow 02:20:37 18° 348° (NNW) 1,552 5.4 -21.8°
